Regional Weather Roundup
Issued by NWS

Home | Current Version | Previous Version | Graphics & Text | Print | Product List | Glossary On
Versions: 1 2 3 4 5 6 7 8 9 10 11 12 13 14 15 16 17 18 19 20 21 22 23 24 25 26 27 28
000
ASUS45 KCYS 041610
RWRWY

WYOMING REGIONAL WEATHER ROUNDUP
NATIONAL WEATHER SERVICE CHEYENNE WY
900 AM MST SUN DEC 04 2016

NOTE:  "FAIR" INDICATES FEW OR NO CLOUDS BELOW 12,000 FEET
WITH NO SIGNIFICANT WEATHER AND/OR OBSTRUCTIONS TO VISIBILITY.

WYZ001-041700-
YELLOWSTONE NATIONAL PARK

CITY           SKY/WX    TMP DP  RH WIND       PRES   REMARKS
LK YELLOWSTONE   N/A     20  16  84 W8G17     29.85F WCI  10
W YELLOWSTONE  NOT AVBL

$$
WYZ002>013-054>058-071-098>099-041700-
NORTHERN WYOMING

CITY           SKY/WX    TMP DP  RH WIND       PRES   REMARKS
JACKSON        CLOUDY    27  25  93 S18       29.94F VSB 1   WCI  13
CODY           FAIR      35  22  58 SW15      29.79F WCI  25
GREYBULL       PTSUNNY   27  17  66 CALM      29.85F
WORLAND        FAIR      25  18  74 W3        29.84F
SHERIDAN       CLOUDY    32  20  61 SW3       29.80F
BUFFALO        CLOUDY    32  14  47 E3        29.80F
GILLETTE       FAIR      30  14  51 SW17      29.83F WCI  18
HULETT         PTSUNNY   32  19  59 SW9       29.84F WCI  24
NEWCASTLE      FAIR      27  19  74 SE6       29.91S WCI  20

$$
WYZ014>020-022>026-101>103-041700-
CENTRAL WYOMING

CITY           SKY/WX    TMP DP  RH WIND       PRES   REMARKS
BIG PINEY      PTSUNNY   15  12  88 E5        30.01S WCI   8
PINEDALE       CLOUDY    18  14  86 E5        30.01F WCI  11
DUBOIS         FLURRIES  27  19  74 N17G24    29.84F WCI  14
LANDER         FAIR      18   8  65 SE6       29.86F WCI  10
RIVERTON       FAIR      25   9  50 SW6       29.87F WCI  18
CASPER         FAIR      29  17  61 SW21G29   29.90F WCI  16
DOUGLAS        FAIR      32  18  56 NW5       29.90S WCI  27

$$
WYZ021-027>030-104>119-041700-
SOUTHERN WYOMING

CITY           SKY/WX    TMP DP  RH WIND       PRES   REMARKS
EVANSTON       FAIR      24  11  57 SW22      30.07S WCI   9
FORT BRIDGER   FAIR      28  13  52 W16       30.08F WCI  16
ROCK SPRINGS   CLOUDY    25  14  63 S10       30.06S WCI  15
DIXON          FAIR      13   8  79 CALM      30.15F
RAWLINS        FAIR      24  12  60 SW23G31   29.99R WCI   9
SARATOGA       FAIR      27  14  59 E5        30.03F WCI  21
LARAMIE        FAIR      26   7  44 SW17G23   29.95S WCI  13
CHEYENNE       FAIR      31   6  35 SW13      29.96F WCI  21
TORRINGTON     FAIR      37  16  42 W10       29.94F WCI  30
PINE BLUFFS    FAIR      28  14  54 S7        30.00S WCI  21

$$




USA.gov is the U.S. government's official web portal to all federal, state and local government web resources and services.